Regional Weather Roundup
Issued by NWS

Home | Current Version | Previous Version | Graphics & Text | Print | Product List | Glossary On
Versions: 1 2 3 4 5 6 7 8 9 10 11 12 13 14 15 16 17 18 19 20 21 22 23 24 25 26 27 28 29 30 31 32 33 34 35 36 37 38 39 40 41 42 43 44 45 46 47 48 49 50
531
ASUS43 KTOP 061608
RWRKS

WEATHER ROUNDUP FOR KANSAS
NATIONAL WEATHER SERVICE GOODLAND KS
1000 AM CST SAT FEB 06 2016

NOTE:  "FAIR" INDICATES FEW OR NO CLOUDS BELOW 12,000 FEET WITH NO
SIGNIFICANT WEATHER AND/OR OBSTRUCTIONS TO VISIBILITY.

KSZ001>006-013>018-027>032-041>047-061700-
NORTHWEST KANSAS

CITY           SKY/WX    TMP DP  RH WIND       PRES   REMARKS
GOODLAND       CLOUDY    27  12  53 SW14      30.23R WCI  16
HAYS           SUNNY     25   9  50 W9        30.30F
HILL CITY      CLOUDY    23  13  65 W8        30.28S
RUSSELL        SUNNY     23  18  81 SW8       30.29F
$$

KSZ061>065-074>080-084>089-061700-
SOUTHWEST KANSAS

CITY           SKY/WX    TMP DP  RH WIND       PRES   REMARKS
DODGE CITY     SUNNY     33  19  56 W8        30.33R
ELKHART          N/A     33  20  59 W5          N/A
GARDEN CITY    SUNNY     30  20  66 W7        30.31S
GREAT BEND     SUNNY     30  19  64 W8        30.34S
LIBERAL        SUNNY     34  21  60 NW8       30.34S
PRATT          SUNNY     29  22  74 NW10      30.34S WCI  20
$$

KSZ066>073-081>083-090>101-061700-
SOUTHEAST KANSAS

CITY           SKY/WX    TMP DP  RH WIND       PRES   REMARKS
CHANUTE        SUNNY     38  28  67 N6        30.33S
COFFEYVILLE    SUNNY     40  28  62 N3        30.35F
HUTCHINSON     SUNNY     32  24  72 W6        30.34R
MEDICINE LODGE   N/A     33  26  75 W6        30.37R
NEWTON         SUNNY     34  25  69 W6        30.34S
PARSONS        SUNNY     38  28  67 CALM      30.34F
WICHITA INTL   SUNNY     37  28  70 NW6       30.35R
WICHITA JABRA  SUNNY     35  29  78 W7        30.35R
WICHITA MCCONL SUNNY     36  28  74 NW7       30.35R
WINFIELD       SUNNY     38  30  73 N6        30.37R
$$

KSZ007>012-019>026-033>040-048>060-102>105-061700-
NORTHEAST KANSAS

CITY           SKY/WX    TMP DP  RH WIND       PRES   REMARKS
CONCORDIA      SUNNY     32  26  78 W8        30.29F
EMPORIA        SUNNY     34  30  85 W5        30.33R
LAWRENCE       SUNNY     34  29  82 NW5       30.33R
MANHATTAN      SUNNY     33  29  85 SW6       30.32F
MARYSVILLE     SUNNY     34  32  93 SW7       30.28F
OLATHE IND     SUNNY     34  29  82 W3        30.31R
OLATHE EXE     SUNNY     37  28  70 CALM      30.30R
SALINA         SUNNY     35  27  72 W5        30.34R
TOPEKA BILLARD SUNNY     34  29  82 W5        30.33R
TOPEKA FORBES  SUNNY     37  30  75 NW6       30.32R
$$




USA.gov is the U.S. government's official web portal to all federal, state and local government web resources and services.